Vorticity
10 21 20 15 18 13 5 9 19 26 22 9 4 11 11 8 9 7 8 9 7 7 1 6 15 0 21 68 36 -12 5 16 2 -0 1 2 3 1 3 6 1 -0 8 12 5 3 7 5 4 3 2 5 2 1 4 4 5 5 3 4 5 5 4 2 0 0 3 4 3 3 4 5 5 3 4 6 9 11 13 15 14 9 6 4 2
5 19 21 18 19 10 0 4 9 14 22 16 5 9 13 11 10 8 7 8 6 9 3 -1 10 6 7 33 26 -3 2 14 9 1 -2 2 3 1 3 4 1 -1 8 15 7 4 7 4 2 3 3 5 3 1 3 4 5 5 3 3 5 5 5 4 3 1 1 2 0 -1 0 1 3 4 3 4 6 8 10 12 13 11 10 10 9
6 22 26 22 20 8 -1 8 14 14 19 20 11 9 13 13 10 7 7 8 5 9 9 -1 4 14 8 7 20 23 13 8 10 7 0 0 1 0 0 2 1 -2 5 16 9 4 6 3 2 3 2 4 3 -0 1 4 5 5 4 5 6 6 5 4 5 4 2 2 0 -1 -1 -2 0 2 2 3 4 5 8 9 11 11 10 10 9
12 26 31 26 18 8 5 16 25 23 22 23 18 14 13 11 10 8 6 7 7 6 10 6 1 10 14 5 9 24 23 12 8 8 6 0 -1 2 0 -0 4 0 2 13 12 6 6 3 2 1 1 2 2 -1 -0 4 6 4 4 7 7 7 7 4 4 5 5 5 3 0 -1 -2 -1 -0 0 2 3 4 6 7 8 10 10 9 9
17 30 34 26 14 7 15 30 36 29 23 27 25 18 15 11 8 9 6 6 9 7 9 11 6 6 13 10 4 8 15 19 16 9 5 1 -2 3 4 1 3 2 0 9 14 9 4 2 1 -0 0 3 3 1 -0 1 4 3 3 7 8 7 7 6 5 4 4 6 5 4 2 0 1 1 0 0 1 2 2 3 5 6 7 9 10
16 29 31 24 16 -4 -24 -12 20 31 24 27 30 21 14 12 8 7 7 6 7 8 8 8 5 5 10 11 8 4 4 17 28 18 5 2 -1 1 8 7 5 3 -1 5 16 13 4 -0 0 1 2 4 5 4 1 -1 0 1 1 3 6 7 7 7 7 5 4 5 5 6 6 4 3 4 3 0 -0 1 0 -1 1 2 3 6 8
14 27 27 21 22 -0 -41 -42 3 30 23 22 28 23 14 13 10 7 7 7 6 6 7 7 2 -0 4 7 9 9 3 14 36 29 7 1 -1 -1 7 10 8 7 2 1 15 19 5 -3 -0 3 3 3 4 5 3 -1 -1 1 -0 -0 3 7 7 6 7 7 6 6 5 5 7 7 6 5 5 3 0 -0 -1 -1 -0 0 0 1 4
11 23 25 19 19 16 3 -0 11 18 17 20 26 23 16 13 11 9 6 6 7 5 5 9 6 -1 3 7 7 7 5 15 39 38 10 -2 -2 -3 4 8 6 8 7 4 14 20 9 -3 -1 3 4 0 -2 1 5 3 -2 -2 0 -1 -0 4 6 6 6 7 7 7 6 6 7 9 9 7 6 5 4 2 -0 -0 1 0 0 1 2
11 17 20 18 17 19 22 20 13 8 12 19 25 23 17 13 12 9 7 6 6 5 4 6 7 2 1 6 9 10 7 11 29 34 13 -2 -3 -5 -2 3 4 7 10 7 13 21 11 -1 -3 1 3 0 -5 -2 8 11 3 -3 -0 1 -1 1 5 6 5 5 6 7 7 8 10 10 10 9 7 6 7 5 2 1 1 0 0 1 1
10 13 15 15 16 20 20 14 9 8 10 14 23 25 18 14 12 9 7 6 5 5 5 4 5 4 -1 1 9 10 7 8 17 24 12 -2 -2 -2 -2 3 6 7 8 9 17 21 10 -1 -2 1 2 1 0 3 7 11 12 7 3 3 -0 -2 2 5 5 4 4 7 7 7 7 5 4 6 7 8 8 8 6 3 1 2 2 1 1
11 10 13 13 13 19 20 11 5 5 7 11 19 24 22 15 12 10 7 6 5 5 3 1 4 7 2 3 10 10 8 10 15 21 18 6 1 -0 -2 4 8 7 6 11 18 19 8 -2 -2 1 1 0 5 10 3 0 10 15 11 7 2 -2 -1 2 4 2 1 4 7 6 3 1 1 2 4 5 6 7 8 6 4 3 2 1 2
15 11 12 13 13 17 17 10 5 5 6 10 14 20 25 19 12 10 8 6 6 5 3 1 4 7 5 5 11 10 8 8 8 12 19 17 10 0 -5 1 7 5 5 10 16 16 5 -2 -1 2 1 0 4 9 3 -5 -2 6 11 11 8 3 -0 -1 1 3 1 1 3 5 4 2 1 2 2 4 6 6 7 7 6 5 3 2 2
17 13 12 14 16 20 19 10 5 5 4 8 14 17 23 22 15 11 9 6 5 3 2 2 4 6 6 5 5 5 5 7 6 6 13 21 23 10 -4 -4 3 3 4 11 17 13 2 -2 0 0 -0 2 4 5 4 1 -4 -5 1 7 9 10 5 -1 -2 1 3 2 2 4 6 5 4 4 6 9 9 6 5 6 6 6 5 3 2
19 12 8 13 17 22 23 10 1 3 4 6 13 16 20 24 19 13 9 7 6 3 1 3 5 5 6 5 2 0 2 6 8 7 5 13 27 25 6 -5 -1 2 4 13 18 10 1 -2 -0 1 1 1 2 2 3 5 5 2 -0 1 6 10 8 3 -1 -3 0 5 5 4 6 6 6 5 6 10 13 11 7 6 7 7 6 4 3
19 14 8 10 15 20 23 13 2 1 3 3 9 14 18 23 22 17 12 9 7 5 3 4 5 5 6 7 4 2 2 4 9 9 2 1 17 31 22 5 3 5 6 15 19 8 -1 -3 -2 0 1 0 0 2 1 2 5 7 5 2 3 6 6 7 5 -1 -3 -0 3 7 8 3 0 1 2 7 14 14 8 5 6 7 7 7 6
15 13 11 8 10 16 21 17 7 1 2 3 5 8 13 20 25 21 15 11 9 6 4 4 5 4 5 7 6 5 3 4 6 7 4 -1 5 21 25 13 7 8 7 12 18 8 -3 -3 1 0 0 0 1 1 1 2 3 5 7 5 4 4 3 5 7 6 3 -1 -1 4 7 3 -2 -3 1 7 15 16 10 8 8 7 7 8 6
18 12 10 9 8 11 17 20 13 4 2 3 3 4 6 12 22 25 19 14 11 8 4 4 5 5 4 5 7 8 6 6 6 5 7 7 3 11 24 19 8 7 9 11 16 11 -2 -7 -2 -0 -1 1 2 2 1 0 1 3 6 7 7 6 4 2 3 7 9 7 3 1 3 7 7 4 3 6 11 11 8 8 9 8 7 7 7
20 12 9 9 8 9 13 19 18 10 5 4 2 3 3 4 14 22 21 18 14 10 6 4 4 5 5 5 6 8 7 6 5 4 7 10 5 5 20 25 13 8 11 11 12 10 2 -5 -3 1 2 1 3 3 1 -0 1 2 3 4 5 7 7 5 2 1 5 9 10 5 3 9 13 9 6 8 13 15 12 9 9 8 8 8 9
13 7 6 7 8 8 9 14 18 14 10 8 5 3 3 4 9 17 20 19 18 14 8 5 5 4 5 7 6 7 8 7 6 5 5 8 6 3 14 26 21 11 10 13 11 9 5 2 2 5 6 4 4 3 1 -0 1 1 1 1 2 2 5 7 5 2 2 4 8 8 6 7 9 10 12 13 14 14 11 5 4 5 6 8 10
17 11 8 8 8 8 7 10 15 15 13 10 6 4 4 5 6 12 17 18 19 18 11 6 6 5 4 6 6 6 8 7 7 7 5 5 7 5 8 18 23 16 9 8 9 9 8 7 7 8 6 5 5 4 2 1 0 0 1 1 0 0 1 3 5 4 1 -1 4 8 7 4 5 9 12 8 2 4 7 7 8 10 10 10 9
20 16 12 11 10 9 8 7 10 15 20 18 11 4 4 7 6 6 11 16 20 20 14 7 5 5 5 6 6 6 7 7 7 6 4 4 7 8 6 9 16 20 17 9 3 3 5 4 4 6 5 4 4 3 2 3 2 1 0 -1 1 3 2 1 3 2 -1 -1 5 10 7 5 7 9 11 13 12 11 12 10 10 11 10 10 9
22 22 21 20 19 17 15 11 7 9 17 25 24 14 5 4 6 4 5 12 19 21 17 11 6 6 7 8 7 5 6 6 7 7 6 4 5 8 10 9 9 15 25 22 9 2 4 2 0 1 3 5 7 5 4 4 3 4 4 -0 -1 0 -1 -0 1 -0 2 6 10 12 8 4 5 2 0 8 13 9 7 7 7 10 11 10 9
18 19 20 20 20 19 19 18 17 14 13 18 25 27 18 8 6 5 3 7 16 20 18 13 9 7 9 10 8 6 6 5 6 7 7 5 3 5 10 13 9 13 28 34 20 7 6 5 3 3 2 2 4 5 7 6 3 4 5 1 1 2 2 5 4 0 4 6 6 13 13 3 2 5 7 9 6 -1 1 4 2 3 9 9 9
14 15 17 17 16 16 15 15 18 22 23 20 18 22 26 21 12 8 5 4 11 18 18 14 11 10 12 11 9 6 5 5 6 7 6 5 4 3 5 7 6 9 22 31 24 14 12 11 9 7 4 4 4 6 11 12 8 9 13 16 19 18 16 18 17 13 15 11 8 19 21 3 -2 13 24 20 5 -7 -3 0 -3 -0 7 10 10
14 11 12 14 16 17 17 16 16 16 22 29 26 18 19 23 22 16 10 6 9 15 17 14 11 12 14 13 11 8 6 5 5 6 7 6 4 4 6 8 6 2 5 12 15 16 19 24 26 23 19 14 8 5 10 14 12 13 15 15 15 14 13 17 16 12 14 13 13 24 24 3 -6 9 20 14 3 2 9 12 9 8 10 9 7
11 12 17 19 20 23 23 19 17 15 13 17 24 22 17 17 21 23 18 12 10 13 15 13 11 12 15 14 12 9 8 7 5 5 6 7 5 5 7 8 8 7 7 7 5 3 3 8 19 31 37 32 19 8 8 10 9 8 6 5 9 14 17 24 27 22 17 13 15 21 19 3 -8 -3 4 4 1 5 10 9 7 8 8 6 4
21 24 22 14 14 28 39 33 21 18 17 11 9 13 16 15 16 22 25 19 14 13 13 11 10 13 15 15 14 11 7 7 6 4 4 6 6 6 4 1 2 6 9 8 5 2 -1 -3 1 13 24 27 20 12 6 4 5 6 6 8 10 8 7 13 25 32 29 21 16 14 12 7 -2 -6 -1 5 3 3 4 3 5 6 1 -2 -2
20 10 1 4 11 24 49 66 53 27 17 19 13 6 8 12 14 20 26 26 20 16 12 8 9 14 16 16 15 13 10 8 6 4 5 5 5 6 6 5 4 3 2 3 5 6 5 3 1 4 8 8 6 5 3 3 7 9 8 9 6 -0 -0 5 12 23 29 27 20 12 10 14 8 -1 3 6 1 0 3 1 1 1 -3 -6 -3
11 -0 -7 6 13 4 17 59 77 51 24 22 27 19 10 10 15 19 24 28 25 18 12 8 8 12 16 19 17 14 11 10 6 4 4 5 5 5 7 8 8 6 4 4 7 7 7 6 6 8 10 5 1 2 4 4 6 5 4 7 8 5 7 9 6 10 19 26 23 13 9 16 11 -0 3 6 -3 -4 3 1 -3 -1 -2 -3 1
7 10 3 1 9 11 11 26 51 59 44 26 25 29 24 19 18 18 20 26 28 21 13 11 10 10 12 16 17 15 12 10 8 6 4 5 5 5 6 8 9 9 8 7 6 6 7 8 7 8 9 5 2 4 4 2 3 2 1 5 8 7 9 11 5 2 8 20 25 16 7 13 14 1 0 5 -3 -6 1 1 -3 -3 -3 -2 4
7 12 7 -3 -1 14 20 7 5 31 50 39 26 31 35 29 24 23 23 26 27 23 16 13 13 12 12 13 14 14 14 11 8 7 6 4 4 4 5 7 9 10 10 10 9 7 6 6 6 7 8 8 7 9 8 6 6 6 3 3 4 5 10 12 6 3 4 12 23 20 11 14 16 4 -3 2 -1 -4 -1 -1 -1 2 2 0 3
10 5 5 5 1 4 16 13 -1 6 28 35 26 24 30 28 25 32 41 37 26 22 21 17 13 11 11 12 13 13 15 13 9 7 6 5 4 4 4 5 7 8 7 6 8 8 8 8 7 6 7 9 9 9 7 7 7 6 5 4 3 6 11 10 6 7 9 9 17 24 19 14 14 9 4 5 0 -4 -1 1 2 4 2 0 4
15 6 2 7 10 8 12 14 5 -3 6 21 21 14 19 23 16 19 39 43 29 19 14 9 10 13 13 17 20 16 13 14 12 8 6 5 4 4 5 5 6 7 7 6 6 6 7 9 8 7 8 10 10 9 8 7 6 6 6 9 11 15 19 16 12 14 14 10 15 25 21 12 11 16 18 15 5 -0 4 8 8 6 7 10 13
12 9 4 1 6 11 11 9 5 -2 1 16 19 8 10 21 15 10 24 34 28 23 15 5 8 17 17 19 26 23 14 13 12 9 7 8 8 8 9 9 8 7 6 6 6 6 7 9 9 10 11 11 11 12 10 7 8 11 16 24 31 34 31 22 17 20 20 15 19 26 19 9 12 20 22 18 10 7 10 10 5 3 6 9 7
11 10 9 5 3 6 9 10 12 9 6 12 11 2 6 19 20 21 34 31 15 13 16 9 8 18 19 19 27 28 19 14 13 9 7 7 8 10 10 9 11 11 10 9 10 12 14 15 13 11 8 5 7 9 9 9 13 17 21 26 30 30 27 23 22 22 17 14 22 24 8 -4 4 14 14 12 11 10 9 6 1 1 3 4 4
12 10 12 13 10 6 4 4 8 12 13 12 8 2 5 11 10 20 42 44 23 10 8 -2 -10 -7 -2 5 19 25 18 12 11 13 13 11 9 9 9 7 7 6 6 7 10 13 14 11 6 3 1 3 8 12 13 15 15 14 16 19 17 14 14 17 22 21 12 10 22 19 -6 -18 -4 9 10 10 9 5 3 1 -0 0 2 1 3
14 11 10 13 14 13 10 5 1 3 6 10 11 8 5 5 3 7 23 38 41 36 31 23 15 7 0 1 10 17 15 9 6 8 14 15 13 11 9 7 8 7 5 4 7 9 9 7 5 5 6 7 10 12 13 13 12 10 12 15 13 10 7 6 15 24 20 16 20 13 -8 -12 3 11 9 9 9 6 5 4 2 2 3 3 4
15 14 13 14 14 14 13 9 5 2 1 3 8 10 9 8 6 2 4 14 27 35 37 36 36 32 26 19 16 15 16 14 10 8 9 12 14 12 7 5 12 16 14 11 11 9 7 7 9 11 11 10 12 17 20 18 12 10 12 12 8 9 8 5 10 20 22 17 15 7 -2 2 12 12 7 7 9 9 8 7 6 7 8 9 11
12 12 12 13 15 17 17 16 12 9 6 2 1 4 8 9 8 6 4 5 11 19 26 28 25 24 25 26 23 18 13 10 8 9 9 8 10 10 4 2 6 12 12 12 13 13 11 8 7 8 9 7 5 6 9 8 2 2 6 5 0 1 5 5 5 8 9 9 8 6 6 11 15 13 11 10 7 4 4 6 7 5 3 3 3
11 11 12 13 14 15 17 19 18 15 13 10 5 1 2 5 8 8 7 5 5 8 14 21 24 22 19 19 20 20 17 13 12 13 13 12 11 10 7 4 5 8 12 12 10 11 11 8 4 5 8 6 -0 -5 -6 -3 1 5 7 3 -2 -1 3 2 -2 -4 -2 2 4 6 8 9 7 7 11 12 7 4 5 8 7 3 1 4 4
13 12 11 12 15 16 17 18 19 18 16 15 12 8 4 2 3 5 6 7 8 7 5 8 15 20 21 19 19 19 19 19 19 18 18 18 18 16 16 14 8 8 13 16 14 12 11 8 3 3 3 4 5 5 3 2 6 10 9 5 3 5 5 1 -3 -2 2 5 5 7 13 11 4 3 10 14 11 7 7 8 5 0 1 5 6
28 25 20 15 12 13 15 16 18 19 18 17 15 14 12 8 5 5 4 3 5 7 7 6 6 8 12 16 18 19 17 16 16 16 16 16 15 15 17 16 8 -1 -0 5 8 9 10 9 9 7 5 3 4 7 8 6 4 6 8 7 5 5 3 -0 -3 -1 5 8 6 8 12 11 5 6 12 14 12 11 10 7 1 -3 -2 -1 -1
23 27 29 28 24 19 16 14 13 15 18 19 18 17 16 14 11 10 9 6 3 3 5 7 7 7 6 6 9 13 15 15 16 16 15 14 14 11 11 11 9 4 0 1 4 5 6 7 9 10 11 10 8 7 9 10 7 6 7 7 7 7 6 3 -0 -2 3 10 13 13 11 7 5 10 13 9 5 8 13 12 7 6 9 10 7
10 11 14 19 24 26 25 22 17 13 12 13 15 17 18 18 17 14 13 12 10 6 3 4 6 7 8 7 6 6 7 8 11 13 14 14 15 15 13 12 12 12 10 10 10 8 6 5 5 7 9 10 8 7 9 10 10 9 8 7 7 8 6 3 2 1 3 8 12 12 10 6 6 12 15 6 -6 -10 -6 -2 -1 2 7 11 12
12 13 11 9 10 13 18 23 24 23 19 14 11 10 12 14 17 17 16 16 15 13 10 7 5 4 6 8 8 7 6 5 6 7 8 9 9 11 13 15 16 17 18 17 17 16 14 10 8 7 8 9 8 8 8 9 9 10 9 7 8 8 6 5 6 6 6 7 6 4 4 6 7 10 13 12 4 -5 -9 -8 -8 -7 -1 8 13
11 15 18 18 14 10 8 8 12 17 21 23 21 18 14 10 10 12 13 14 16 16 16 14 12 9 7 6 6 7 7 7 6 5 5 5 5 5 6 9 12 14 17 19 21 23 23 22 19 16 14 13 11 10 10 10 9 10 10 9 8 7 6 5 6 7 8 10 8 4 3 5 6 5 6 9 10 6 4 4 3 -2 -0 7 11
10 12 16 19 22 21 18 13 9 6 7 11 16 20 23 22 18 14 12 11 10 12 14 15 16 15 13 10 8 6 6 7 8 7 6 5 4 3 2 3 5 5 4 6 10 13 16 19 21 22 21 18 15 12 11 10 9 10 11 11 11 12 11 10 8 7 6 8 9 8 6 5 4 3 2 5 8 6 5 8 8 3 1 6 10
7 10 12 15 17 20 22 22 21 16 11 7 5 6 11 17 21 22 22 19 15 12 10 10 11 13 14 14 13 11 8 7 7 7 8 8 7 5 3 2 3 4 3 3 3 4 6 8 11 14 15 16 14 14 13 13 12 12 11 10 10 12 14 14 13 12 9 7 7 9 9 7 5 3 3 7 10 10 7 6 6 5 5 9 11
6 8 10 12 13 15 17 19 22 23 22 20 15 10 6 5 6 10 16 20 23 23 20 17 13 10 9 10 12 14 14 13 11 9 8 8 8 9 8 5 3 4 6 6 7 8 9 9 9 10 11 10 8 8 8 9 9 10 9 8 8 8 10 12 14 14 13 11 11 11 12 13 12 9 8 8 8 7 4 2 2 4 8 11 12
6 7 9 10 10 11 13 15 17 19 20 22 22 22 19 15 11 7 5 6 10 15 20 23 24 22 18 14 11 10 10 13 14 14 13 11 9 9 9 9 8 7 7 7 8 9 11 12 12 12 12 11 11 10 9 9 9 10 10 11 12 12 12 12 13 13 12 10 8 8 9 11 12 12 14 13 11 9 8 9 12 13 11 11 14
6 7 9 10 11 11 11 12 13 15 17 18 19 20 21 22 22 20 16 11 8 6 7 11 16 21 24 25 23 19 15 12 11 11 12 13 13 11 9 9 9 8 7 6 6 7 8 9 11 12 12 12 13 12 12 12 12 12 12 13 14 15 15 14 14 14 13 11 9 8 9 11 12 13 14 15 14 12 10 12 16 17 15 14 14
Height
5645 5647 5650 5654 5659 5662 5666 5669 5673 5677 5682 5687 5695 5703 5710 5716 5721 5726 5731 5736 5742 5747 5752 5756 5760 5764 5767 5769 5771 5774 5777 5782 5786 5789 5792 5794 5796 5799 5802 5806 5809 5812 5813 5815 5817 5820 5822 5824 5825 5827 5829 5830 5831 5832 5832 5832 5832 5833 5833 5833 5833 5833 5833 5833 5833 5833 5833 5833 5833 5832 5832 5831 5830 5829 5829 5828 5826 5825 5825 5824 5824 5823 5823 5822 5821
5636 5638 5641 5646 5651 5655 5659 5664 5667 5671 5675 5680 5688 5696 5704 5710 5715 5720 5726 5731 5736 5742 5747 5751 5755 5760 5763 5766 5769 5771 5774 5778 5781 5784 5788 5790 5792 5795 5798 5802 5806 5809 5811 5812 5815 5817 5819 5821 5823 5824 5826 5827 5829 5829 5829 5829 5830 5830 5831 5831 5831 5831 5831 5831 5831 5831 5831 5832 5832 5831 5830 5830 5829 5828 5827 5826 5825 5824 5823 5823 5822 5822 5821 5820 5819
5628 5630 5633 5639 5645 5649 5654 5659 5663 5666 5669 5674 5681 5691 5699 5704 5709 5715 5721 5726 5731 5736 5741 5746 5751 5755 5758 5761 5765 5767 5771 5774 5776 5780 5784 5786 5788 5791 5795 5799 5802 5806 5808 5810 5812 5814 5816 5818 5820 5821 5823 5825 5826 5826 5826 5826 5827 5828 5828 5829 5829 5829 5829 5829 5829 5829 5829 5830 5830 5830 5829 5828 5827 5826 5826 5825 5824 5823 5822 5821 5821 5820 5819 5818 5817
5620 5622 5626 5633 5639 5644 5649 5653 5657 5661 5666 5671 5677 5685 5692 5697 5703 5710 5715 5720 5726 5731 5736 5741 5746 5750 5753 5756 5760 5763 5768 5770 5772 5776 5779 5782 5784 5787 5791 5794 5798 5802 5805 5807 5809 5811 5814 5816 5817 5818 5820 5822 5823 5823 5824 5824 5825 5825 5826 5827 5827 5827 5827 5827 5827 5827 5827 5827 5827 5828 5827 5826 5825 5825 5824 5823 5822 5821 5820 5819 5819 5818 5817 5816 5815
5612 5614 5620 5627 5633 5639 5644 5648 5652 5657 5663 5669 5675 5680 5685 5690 5697 5704 5709 5715 5721 5726 5731 5736 5741 5745 5748 5752 5756 5759 5763 5766 5769 5772 5775 5777 5780 5783 5786 5790 5794 5798 5801 5803 5805 5808 5810 5812 5813 5814 5817 5819 5820 5820 5821 5822 5822 5823 5824 5825 5825 5825 5825 5825 5825 5825 5825 5825 5825 5825 5825 5825 5824 5823 5822 5821 5821 5819 5818 5817 5816 5816 5815 5814 5813
5605 5608 5613 5620 5627 5633 5638 5643 5648 5654 5659 5666 5671 5676 5679 5683 5691 5698 5704 5710 5715 5720 5726 5731 5736 5740 5744 5747 5751 5754 5758 5761 5764 5767 5770 5773 5775 5778 5782 5786 5790 5794 5797 5799 5801 5804 5806 5808 5809 5811 5813 5815 5817 5817 5818 5819 5820 5821 5821 5822 5823 5823 5823 5823 5823 5822 5822 5822 5823 5823 5823 5822 5822 5821 5820 5820 5819 5818 5817 5816 5814 5813 5812 5811 5810
5599 5603 5608 5614 5621 5627 5633 5639 5645 5651 5656 5661 5667 5671 5674 5678 5684 5692 5698 5703 5709 5714 5720 5726 5730 5734 5738 5741 5745 5749 5752 5754 5757 5760 5764 5767 5771 5773 5777 5781 5785 5789 5793 5795 5797 5800 5802 5803 5805 5807 5809 5812 5813 5813 5814 5815 5817 5818 5819 5819 5820 5821 5821 5820 5820 5820 5820 5820 5820 5820 5820 5820 5819 5819 5818 5818 5817 5816 5815 5814 5812 5811 5810 5809 5808
5594 5598 5603 5608 5616 5623 5630 5636 5642 5647 5651 5656 5660 5665 5669 5673 5678 5685 5691 5697 5703 5709 5714 5719 5724 5728 5731 5734 5737 5741 5744 5747 5749 5753 5758 5762 5765 5768 5772 5776 5780 5784 5787 5790 5792 5795 5797 5799 5801 5803 5805 5807 5809 5810 5811 5812 5813 5815 5816 5816 5817 5818 5818 5818 5818 5817 5817 5817 5817 5818 5817 5817 5817 5816 5815 5815 5815 5814 5813 5812 5810 5809 5807 5806 5805
5589 5594 5599 5605 5612 5620 5626 5632 5637 5641 5646 5650 5655 5660 5665 5669 5673 5679 5685 5691 5697 5703 5708 5713 5717 5721 5723 5726 5728 5731 5734 5738 5741 5745 5750 5756 5759 5762 5766 5771 5775 5778 5781 5784 5786 5789 5792 5794 5797 5799 5801 5803 5804 5806 5807 5809 5810 5811 5812 5813 5814 5814 5815 5815 5815 5815 5815 5815 5815 5815 5815 5815 5814 5813 5813 5812 5812 5812 5811 5810 5808 5807 5806 5805 5803
5585 5591 5596 5603 5610 5616 5622 5627 5631 5636 5641 5646 5651 5656 5660 5664 5669 5673 5679 5686 5691 5697 5702 5706 5710 5713 5716 5720 5723 5726 5730 5733 5736 5739 5744 5748 5752 5755 5759 5765 5768 5771 5774 5777 5780 5784 5787 5790 5792 5795 5796 5798 5800 5802 5804 5805 5806 5807 5808 5809 5810 5811 5812 5812 5812 5812 5812 5813 5813 5813 5813 5813 5812 5811 5810 5810 5809 5809 5808 5807 5806 5805 5804 5803 5801
5581 5588 5594 5600 5606 5612 5617 5622 5626 5631 5637 5642 5648 5652 5656 5660 5664 5669 5674 5680 5685 5691 5695 5700 5704 5706 5710 5715 5720 5724 5729 5733 5737 5740 5743 5745 5746 5748 5753 5758 5762 5764 5767 5771 5774 5777 5781 5785 5787 5790 5791 5793 5795 5798 5800 5801 5802 5802 5803 5804 5805 5807 5808 5809 5809 5809 5809 5810 5810 5810 5811 5810 5809 5808 5808 5807 5806 5806 5806 5805 5804 5803 5802 5801 5799
5579 5585 5592 5597 5602 5607 5613 5618 5623 5627 5632 5638 5643 5648 5651 5655 5659 5664 5668 5674 5679 5685 5689 5694 5697 5700 5705 5710 5715 5720 5724 5729 5734 5738 5741 5743 5745 5747 5751 5755 5757 5759 5762 5765 5768 5771 5775 5779 5782 5784 5786 5788 5790 5793 5795 5796 5797 5798 5799 5800 5801 5803 5804 5805 5805 5805 5806 5806 5806 5807 5807 5807 5806 5805 5804 5804 5804 5804 5803 5802 5801 5800 5799 5798 5796
5577 5583 5589 5594 5599 5604 5609 5615 5619 5624 5628 5633 5638 5642 5646 5650 5655 5660 5664 5668 5673 5678 5683 5687 5690 5695 5700 5706 5711 5715 5719 5724 5729 5732 5736 5739 5743 5746 5750 5753 5755 5757 5759 5761 5763 5766 5770 5774 5777 5778 5780 5783 5785 5788 5790 5791 5792 5793 5794 5796 5797 5799 5800 5801 5802 5802 5802 5802 5802 5803 5803 5802 5802 5801 5800 5800 5801 5801 5800 5799 5798 5797 5797 5796 5794
5575 5581 5586 5591 5596 5601 5606 5612 5616 5620 5624 5628 5633 5637 5641 5646 5651 5655 5659 5663 5668 5673 5677 5680 5684 5689 5695 5701 5706 5710 5715 5720 5724 5727 5731 5735 5738 5741 5745 5749 5753 5755 5757 5759 5761 5763 5766 5769 5771 5773 5775 5778 5780 5782 5784 5785 5786 5787 5789 5791 5793 5795 5796 5797 5798 5799 5799 5799 5799 5799 5798 5797 5798 5797 5796 5797 5797 5797 5797 5796 5795 5794 5794 5792 5791
5573 5578 5584 5589 5594 5599 5604 5609 5613 5617 5620 5623 5627 5632 5637 5642 5647 5651 5655 5659 5664 5668 5671 5675 5679 5685 5691 5697 5701 5706 5711 5716 5720 5724 5727 5730 5733 5735 5738 5742 5747 5751 5754 5756 5758 5761 5763 5765 5767 5769 5771 5773 5775 5777 5778 5779 5780 5782 5784 5787 5789 5790 5791 5793 5794 5795 5795 5796 5795 5795 5794 5793 5793 5793 5792 5792 5793 5793 5793 5792 5792 5791 5790 5788 5787
5571 5576 5582 5587 5591 5596 5601 5606 5610 5613 5616 5619 5623 5628 5633 5639 5644 5648 5652 5655 5660 5663 5666 5670 5675 5681 5687 5692 5696 5701 5706 5711 5715 5719 5723 5726 5728 5729 5732 5735 5739 5744 5748 5752 5755 5757 5759 5761 5763 5765 5767 5769 5771 5772 5773 5773 5775 5777 5780 5783 5784 5786 5787 5788 5789 5790 5791 5791 5792 5792 5791 5790 5790 5789 5788 5787 5788 5788 5788 5789 5788 5787 5786 5785 5784
5570 5574 5579 5584 5589 5593 5598 5602 5606 5609 5612 5616 5620 5624 5628 5634 5639 5643 5647 5651 5655 5658 5662 5666 5672 5677 5683 5687 5692 5697 5702 5706 5711 5714 5717 5721 5722 5724 5727 5730 5733 5737 5742 5745 5749 5752 5755 5757 5759 5761 5763 5766 5767 5768 5768 5769 5771 5774 5776 5778 5779 5781 5783 5784 5785 5785 5786 5787 5787 5787 5787 5787 5786 5784 5783 5783 5783 5783 5784 5785 5784 5783 5782 5781 5781
5568 5572 5577 5581 5586 5590 5594 5598 5602 5605 5608 5612 5616 5619 5623 5627 5631 5636 5640 5644 5649 5653 5656 5660 5667 5673 5678 5683 5688 5693 5697 5702 5706 5709 5712 5715 5717 5720 5723 5726 5729 5732 5735 5739 5743 5747 5750 5753 5755 5757 5760 5762 5763 5763 5763 5765 5768 5771 5772 5773 5774 5776 5778 5780 5780 5780 5781 5782 5782 5783 5783 5783 5782 5780 5780 5779 5779 5779 5780 5780 5780 5778 5778 5778 5776
5568 5571 5575 5579 5583 5587 5591 5595 5598 5601 5604 5607 5610 5613 5616 5619 5622 5627 5632 5637 5642 5647 5650 5655 5662 5668 5674 5679 5684 5688 5693 5697 5701 5704 5707 5709 5711 5715 5718 5721 5724 5728 5731 5734 5738 5742 5745 5748 5751 5754 5757 5758 5759 5759 5760 5761 5764 5766 5767 5768 5769 5772 5774 5775 5774 5775 5776 5777 5777 5778 5778 5779 5778 5777 5776 5775 5775 5775 5776 5776 5775 5774 5774 5773 5772
5567 5570 5573 5577 5581 5584 5588 5591 5594 5597 5599 5601 5604 5606 5610 5614 5618 5622 5628 5633 5638 5643 5646 5651 5657 5663 5669 5674 5680 5684 5689 5693 5696 5699 5702 5704 5707 5710 5713 5716 5719 5724 5728 5731 5734 5737 5740 5743 5746 5750 5753 5754 5755 5756 5756 5757 5759 5761 5761 5761 5763 5767 5769 5769 5768 5769 5771 5771 5772 5773 5773 5774 5774 5773 5772 5771 5770 5771 5771 5771 5771 5771 5770 5769 5768
5568 5570 5573 5576 5579 5582 5585 5588 5591 5594 5596 5598 5601 5604 5608 5613 5617 5621 5625 5629 5633 5639 5643 5647 5653 5659 5664 5670 5675 5680 5685 5689 5691 5694 5697 5699 5702 5705 5708 5712 5716 5720 5723 5726 5729 5732 5734 5738 5742 5745 5748 5749 5750 5751 5751 5752 5753 5754 5755 5756 5759 5762 5762 5762 5763 5764 5765 5766 5767 5767 5768 5769 5770 5770 5769 5768 5767 5767 5767 5767 5767 5767 5766 5765 5764
5568 5571 5573 5575 5578 5580 5583 5586 5588 5591 5594 5596 5600 5604 5607 5611 5615 5619 5621 5624 5628 5634 5638 5642 5648 5653 5658 5664 5670 5675 5680 5683 5686 5689 5691 5694 5697 5700 5704 5708 5711 5714 5716 5720 5723 5727 5730 5734 5737 5740 5742 5743 5744 5745 5746 5747 5747 5747 5748 5751 5754 5755 5756 5757 5757 5758 5759 5761 5762 5762 5763 5765 5765 5766 5766 5765 5763 5763 5763 5763 5762 5762 5762 5760 5759
5568 5570 5572 5574 5576 5578 5581 5584 5586 5589 5591 5593 5596 5600 5603 5607 5611 5615 5618 5620 5624 5629 5633 5638 5643 5648 5652 5658 5664 5669 5674 5678 5681 5684 5686 5689 5692 5696 5699 5702 5705 5707 5709 5713 5718 5722 5726 5729 5732 5734 5736 5737 5739 5740 5741 5741 5740 5740 5742 5746 5748 5748 5749 5750 5750 5752 5754 5755 5756 5757 5759 5760 5761 5761 5761 5760 5758 5757 5757 5757 5757 5757 5756 5755 5754
5567 5568 5570 5572 5573 5575 5577 5579 5582 5584 5586 5588 5591 5595 5598 5602 5606 5610 5613 5617 5620 5624 5629 5633 5638 5642 5648 5653 5659 5664 5669 5673 5676 5679 5682 5684 5687 5691 5694 5697 5700 5702 5704 5708 5712 5717 5720 5723 5726 5727 5728 5730 5732 5733 5734 5735 5734 5735 5738 5740 5740 5740 5741 5742 5743 5745 5747 5748 5750 5752 5754 5754 5755 5756 5756 5754 5753 5752 5752 5752 5752 5752 5751 5750 5749
5567 5568 5569 5570 5571 5572 5573 5574 5575 5578 5580 5583 5586 5589 5593 5597 5601 5605 5608 5612 5616 5620 5624 5628 5633 5638 5643 5648 5654 5658 5663 5667 5671 5674 5676 5679 5682 5686 5689 5693 5695 5698 5701 5704 5708 5712 5715 5717 5719 5720 5721 5722 5725 5726 5728 5729 5729 5731 5732 5732 5732 5732 5734 5735 5737 5738 5740 5742 5744 5746 5748 5749 5749 5749 5750 5749 5748 5748 5747 5747 5747 5747 5746 5745 5743
5567 5567 5568 5569 5569 5570 5570 5571 5571 5572 5575 5578 5581 5585 5589 5592 5596 5600 5603 5608 5612 5616 5620 5624 5629 5634 5638 5643 5648 5652 5657 5661 5665 5668 5671 5674 5677 5681 5684 5688 5691 5693 5696 5700 5703 5706 5709 5711 5712 5713 5714 5716 5718 5720 5721 5723 5724 5724 5724 5725 5726 5727 5728 5729 5730 5731 5733 5735 5737 5740 5742 5743 5742 5742 5744 5745 5745 5744 5743 5741 5741 5742 5741 5739 5738
5566 5566 5567 5567 5568 5568 5568 5568 5568 5568 5570 5573 5577 5581 5585 5588 5591 5595 5598 5603 5608 5612 5616 5620 5625 5629 5634 5638 5643 5647 5651 5656 5659 5662 5665 5669 5672 5675 5679 5682 5685 5687 5691 5694 5698 5700 5703 5705 5706 5707 5708 5709 5711 5713 5715 5717 5718 5718 5719 5720 5722 5723 5723 5723 5723 5724 5725 5728 5730 5733 5735 5735 5735 5737 5739 5740 5741 5739 5737 5736 5736 5736 5735 5734 5733
5564 5565 5565 5565 5565 5565 5564 5563 5563 5564 5567 5570 5573 5576 5580 5584 5588 5591 5595 5598 5603 5608 5612 5617 5621 5626 5630 5634 5638 5642 5647 5651 5655 5658 5661 5663 5666 5669 5672 5675 5678 5681 5685 5689 5692 5694 5696 5698 5699 5701 5702 5704 5706 5707 5709 5710 5712 5713 5713 5715 5716 5716 5717 5717 5717 5718 5720 5722 5724 5726 5728 5729 5730 5731 5732 5734 5735 5734 5732 5731 5731 5731 5730 5729 5728
5562 5563 5563 5563 5562 5561 5560 5559 5559 5561 5564 5566 5569 5572 5575 5579 5584 5587 5590 5594 5598 5604 5608 5613 5618 5622 5625 5629 5633 5638 5643 5647 5651 5653 5655 5658 5660 5663 5667 5670 5673 5676 5680 5683 5685 5687 5689 5691 5694 5695 5697 5699 5700 5701 5702 5703 5705 5707 5707 5708 5709 5710 5710 5711 5712 5714 5715 5715 5717 5719 5721 5722 5723 5724 5725 5727 5728 5727 5726 5725 5725 5725 5725 5724 5723
5561 5561 5561 5561 5560 5559 5559 5559 5558 5559 5561 5564 5566 5569 5572 5575 5579 5582 5584 5588 5594 5600 5605 5610 5614 5617 5621 5625 5629 5634 5638 5642 5644 5647 5650 5654 5656 5659 5662 5665 5668 5671 5674 5677 5679 5681 5683 5686 5688 5690 5692 5694 5695 5695 5696 5697 5699 5700 5701 5702 5702 5703 5704 5706 5707 5708 5708 5709 5710 5712 5713 5714 5715 5717 5719 5720 5721 5721 5720 5719 5718 5719 5719 5719 5718
5560 5560 5560 5560 5559 5558 5559 5559 5559 5559 5560 5563 5566 5568 5570 5573 5576 5579 5582 5586 5590 5595 5601 5605 5609 5613 5617 5621 5625 5629 5632 5635 5639 5642 5646 5648 5650 5653 5656 5659 5662 5665 5668 5669 5672 5675 5678 5680 5683 5685 5687 5688 5689 5690 5691 5691 5692 5694 5695 5695 5696 5697 5698 5700 5701 5701 5701 5702 5703 5704 5705 5707 5708 5710 5712 5713 5714 5713 5713 5712 5712 5713 5713 5712 5711
5559 5559 5560 5560 5559 5558 5558 5559 5559 5560 5562 5563 5565 5567 5569 5572 5576 5579 5582 5585 5587 5591 5595 5600 5604 5609 5613 5617 5620 5623 5626 5629 5633 5636 5639 5641 5644 5647 5650 5653 5656 5659 5661 5663 5666 5669 5671 5674 5677 5680 5681 5682 5683 5684 5684 5685 5686 5687 5688 5689 5690 5690 5692 5694 5694 5693 5693 5694 5695 5696 5697 5699 5701 5702 5704 5705 5706 5706 5706 5706 5706 5706 5706 5705 5705
5557 5557 5558 5559 5559 5559 5559 5559 5559 5560 5561 5563 5564 5566 5569 5572 5574 5576 5577 5579 5582 5586 5591 5595 5599 5603 5607 5610 5614 5616 5619 5623 5626 5629 5632 5635 5638 5641 5644 5647 5650 5653 5656 5658 5661 5663 5665 5667 5671 5673 5675 5676 5676 5677 5678 5678 5679 5680 5681 5682 5682 5682 5684 5686 5685 5684 5685 5686 5687 5688 5690 5692 5693 5694 5695 5697 5698 5699 5700 5700 5700 5699 5699 5699 5698
5556 5556 5557 5558 5558 5559 5560 5559 5559 5559 5560 5561 5563 5565 5568 5570 5571 5572 5572 5574 5578 5583 5586 5590 5593 5596 5599 5604 5607 5608 5611 5615 5619 5622 5626 5630 5633 5636 5639 5641 5644 5647 5650 5652 5654 5656 5658 5660 5663 5665 5667 5668 5669 5670 5671 5672 5673 5673 5673 5673 5673 5674 5675 5678 5677 5676 5677 5679 5679 5681 5683 5685 5686 5687 5688 5690 5691 5692 5693 5693 5693 5692 5692 5691 5692
5555 5556 5556 5557 5557 5558 5559 5559 5559 5559 5559 5561 5562 5564 5566 5567 5568 5569 5570 5573 5576 5579 5582 5585 5588 5591 5593 5596 5599 5601 5605 5609 5613 5616 5620 5623 5627 5630 5633 5635 5639 5642 5644 5646 5648 5649 5651 5653 5655 5657 5659 5661 5662 5663 5664 5665 5666 5667 5666 5666 5666 5667 5668 5669 5669 5669 5670 5671 5672 5674 5677 5678 5679 5681 5681 5682 5684 5686 5687 5686 5684 5684 5685 5684 5685
5555 5555 5555 5556 5556 5557 5557 5558 5558 5558 5558 5559 5560 5562 5563 5565 5565 5566 5568 5570 5574 5577 5579 5582 5584 5587 5589 5592 5595 5598 5601 5605 5608 5611 5614 5617 5621 5624 5627 5631 5633 5635 5637 5639 5641 5643 5645 5647 5648 5650 5652 5654 5655 5657 5658 5659 5660 5660 5660 5660 5660 5661 5661 5662 5662 5663 5665 5665 5667 5668 5670 5671 5672 5673 5674 5675 5677 5678 5679 5678 5677 5677 5678 5678 5679
5554 5554 5554 5555 5555 5555 5556 5556 5556 5557 5557 5558 5559 5559 5560 5561 5562 5563 5565 5567 5570 5573 5576 5578 5580 5582 5585 5588 5590 5593 5596 5599 5603 5605 5608 5611 5614 5618 5622 5624 5625 5627 5629 5631 5634 5636 5638 5640 5642 5644 5646 5648 5649 5650 5651 5652 5653 5653 5653 5654 5654 5654 5654 5654 5656 5657 5658 5659 5660 5661 5662 5664 5664 5665 5666 5668 5669 5670 5671 5671 5670 5671 5671 5670 5671
5552 5553 5553 5553 5554 5554 5555 5555 5555 5556 5556 5556 5557 5558 5558 5559 5560 5561 5562 5564 5566 5569 5571 5573 5575 5578 5580 5583 5585 5588 5590 5593 5596 5599 5601 5604 5607 5611 5613 5615 5616 5618 5621 5623 5626 5629 5631 5633 5635 5638 5639 5640 5641 5642 5642 5644 5645 5646 5647 5648 5648 5647 5647 5649 5650 5651 5652 5653 5655 5656 5657 5658 5658 5658 5659 5661 5662 5662 5663 5664 5663 5663 5663 5662 5663
5551 5551 5552 5552 5553 5553 5554 5554 5554 5555 5555 5555 5556 5557 5558 5558 5559 5559 5560 5561 5563 5565 5567 5569 5571 5573 5576 5578 5580 5583 5585 5587 5590 5592 5595 5597 5600 5602 5605 5606 5608 5611 5614 5616 5618 5621 5624 5626 5628 5630 5632 5633 5633 5633 5634 5637 5638 5639 5640 5641 5641 5641 5642 5643 5644 5645 5646 5647 5649 5650 5650 5651 5652 5652 5653 5653 5654 5655 5656 5656 5656 5656 5656 5656 5657
5550 5550 5550 5551 5551 5551 5552 5552 5553 5553 5554 5554 5555 5555 5556 5557 5558 5558 5559 5559 5560 5561 5563 5565 5567 5569 5571 5573 5575 5577 5579 5581 5584 5586 5589 5591 5593 5595 5598 5600 5603 5605 5607 5609 5611 5613 5616 5618 5620 5622 5624 5625 5626 5626 5628 5631 5632 5633 5634 5635 5635 5636 5637 5638 5638 5639 5640 5640 5641 5642 5643 5645 5645 5646 5646 5646 5647 5648 5648 5648 5648 5649 5650 5651 5650
5548 5549 5549 5549 5549 5549 5550 5550 5551 5551 5551 5552 5553 5553 5554 5555 5556 5557 5557 5557 5558 5559 5560 5561 5563 5565 5567 5568 5570 5571 5573 5575 5577 5580 5582 5585 5587 5589 5591 5593 5595 5597 5600 5602 5604 5606 5609 5611 5613 5615 5616 5618 5619 5619 5621 5623 5625 5627 5628 5629 5629 5630 5631 5632 5632 5634 5635 5635 5635 5635 5637 5638 5639 5639 5639 5640 5640 5641 5641 5641 5641 5643 5643 5642 5642
5547 5547 5547 5547 5547 5547 5548 5548 5548 5549 5549 5550 5550 5551 5551 5552 5553 5554 5555 5555 5556 5556 5557 5558 5559 5561 5563 5564 5565 5567 5568 5569 5571 5574 5576 5578 5580 5582 5584 5586 5588 5590 5592 5594 5596 5598 5601 5603 5605 5607 5609 5610 5611 5612 5614 5616 5618 5619 5621 5622 5623 5624 5625 5625 5626 5627 5628 5629 5630 5630 5631 5631 5632 5632 5633 5633 5633 5633 5634 5635 5636 5635 5634 5634 5634
5547 5546 5545 5545 5545 5545 5545 5546 5546 5546 5547 5547 5547 5548 5549 5549 5550 5551 5552 5553 5553 5554 5554 5555 5556 5557 5558 5560 5561 5562 5563 5564 5566 5568 5570 5572 5574 5576 5577 5579 5581 5583 5586 5587 5589 5591 5593 5596 5598 5600 5601 5603 5604 5605 5606 5608 5609 5611 5613 5614 5615 5616 5617 5618 5619 5620 5620 5622 5623 5624 5624 5625 5625 5625 5626 5626 5626 5626 5627 5629 5629 5628 5627 5627 5627
5547 5545 5544 5544 5543 5543 5542 5543 5543 5543 5544 5544 5545 5545 5545 5546 5546 5547 5548 5549 5550 5550 5551 5551 5552 5553 5554 5555 5556 5557 5559 5560 5561 5563 5565 5567 5568 5570 5572 5573 5574 5576 5578 5580 5582 5584 5586 5588 5591 5592 5594 5596 5597 5598 5599 5600 5602 5603 5605 5606 5607 5609 5610 5612 5613 5613 5613 5613 5614 5615 5616 5617 5617 5618 5619 5619 5619 5619 5620 5621 5621 5621 5620 5620 5619
5547 5545 5544 5542 5541 5540 5540 5540 5540 5540 5540 5540 5541 5541 5542 5542 5543 5543 5544 5544 5545 5546 5546 5547 5548 5549 5549 5550 5551 5552 5553 5555 5556 5558 5559 5561 5562 5564 5565 5566 5568 5569 5571 5572 5574 5576 5578 5580 5582 5584 5586 5588 5589 5590 5591 5592 5593 5595 5597 5598 5600 5602 5603 5604 5605 5605 5605 5605 5606 5607 5607 5608 5609 5610 5611 5611 5611 5611 5611 5612 5612 5612 5612 5612 5613
5546 5545 5543 5541 5540 5539 5538 5537 5536 5536 5536 5536 5537 5537 5537 5538 5538 5539 5539 5540 5540 5541 5541 5542 5543 5544 5544 5545 5546 5547 5548 5549 5550 5551 5552 5554 5555 5557 5558 5559 5561 5562 5563 5564 5566 5568 5570 5571 5573 5575 5577 5578 5580 5581 5583 5584 5585 5586 5587 5589 5591 5593 5594 5595 5595 5596 5597 5598 5598 5598 5599 5600 5601 5602 5602 5602 5602 5603 5603 5603 5603 5604 5604 5605 5606
5545 5544 5542 5540 5539 5537 5536 5535 5534 5533 5533 5532 5532 5532 5532 5533 5533 5534 5534 5535 5535 5535 5536 5536 5537 5538 5539 5540 5540 5541 5542 5543 5544 5545 5546 5546 5547 5549 5550 5552 5553 5554 5555 5556 5558 5560 5561 5563 5564 5566 5568 5569 5571 5572 5574 5575 5576 5577 5578 5579 5581 5583 5584 5585 5585 5586 5587 5588 5589 5589 5590 5591 5591 5592 5593 5593 5594 5594 5595 5595 5595 5596 5596 5597 5598
5542 5541 5540 5538 5537 5536 5534 5533 5532 5531 5530 5529 5528 5528 5528 5528 5528 5528 5528 5529 5529 5529 5530 5530 5531 5531 5532 5533 5534 5535 5535 5536 5537 5538 5539 5539 5540 5541 5542 5543 5545 5546 5547 5548 5550 5551 5552 5554 5555 5557 5558 5560 5561 5563 5564 5565 5567 5568 5569 5570 5572 5573 5574 5575 5575 5577 5578 5578 5579 5579 5580 5581 5582 5583 5584 5585 5586 5586 5587 5587 5588 5588 5588 5589 5590
5539 5538 5536 5535 5534 5533 5532 5531 5529 5528 5527 5526 5525 5524 5523 5523 5522 5522 5522 5522 5522 5523 5523 5524 5524 5524 5525 5526 5526 5527 5528 5529 5529 5530 5531 5532 5533 5533 5534 5535 5536 5538 5539 5540 5542 5543 5544 5545 5546 5548 5549 5551 5552 5554 5555 5557 5557 5559 5560 5561 5562 5563 5564 5565 5566 5567 5568 5568 5569 5570 5570 5571 5572 5574 5575 5576 5577 5577 5578 5579 5579 5579 5580 5580 5581
5536 5534 5533 5531 5530 5529 5528 5527 5526 5525 5524 5523 5521 5520 5519 5518 5517 5517 5516 5516 5516 5515 5516 5516 5516 5517 5518 5518 5518 5519 5520 5520 5521 5522 5522 5523 5524 5525 5526 5526 5527 5528 5530 5531 5533 5534 5535 5536 5538 5539 5540 5542 5543 5545 5546 5547 5548 5549 5550 5551 5552 5553 5554 5554 5555 5556 5557 5558 5559 5560 5560 5561 5562 5563 5565 5566 5568 5568 5568 5569 5569 5570 5570 5571 5571
5533 5531 5530 5528 5526 5525 5524 5522 5521 5521 5520 5519 5518 5516 5515 5514 5513 5512 5511 5510 5510 5509 5509 5509 5509 5509 5510 5510 5510 5511 5511 5512 5513 5513 5514 5514 5515 5516 5517 5518 5518 5519 5520 5521 5522 5524 5525 5527 5529 5530 5531 5532 5534 5535 5536 5537 5538 5539 5540 5541 5542 5543 5544 5544 5545 5546 5547 5548 5549 5550 5551 5552 5553 5553 5554 5556 5557 5558 5559 5559 5560 5560 5560 5561 5561